Miscellaneous Local Product
Issued by NWS Hastings, NE

Home | Current Version | Previous Version | Graphics & Text | Print | Product List | Glossary On
Versions: 1 2 3 4 5 6 7 8 9 10 11 12 13 14 15 16 17 18 19 20 21 22 23 24 25 26 27 28 29 30 31 32 33 34 35 36 37 38 39 40 41 42 43 44 45 46 47 48 49 50
364
AXUS43 KGID 140602
MISGRI

GID CWA HOURLY WEATHER ROUNDUP
NATIONAL WEATHER SERVICE HASTINGS NE
1200 AM CST SUN FEB 14 2016

NOTE: "FAIR" INDICATES FEW OR NO CLOUDS BELOW 12,000 FEET WITH NO
SIGNIFICANT WEATHER AND/OR OBSTRUCTIONS TO VISIBILITY.

...SOUTH CENTRAL NEBRASKA...

CITY           SKY/WX    TMP DP  RH WIND       PRES   REMARKS
GRAND ISLAND   CLOUDY    17   8  67 S10       30.04R WCI   5
HASTINGS       CLOUDY    18   7  62 S7        30.02F WCI   9
KEARNEY        CLOUDY    18  10  73 SW9       30.02S WCI   6
ORD            CLOUDY    20  10  65 S21       29.95F WCI   4
YORK           CLOUDY    18   9  68 S10       30.07S WCI   6
AURORA         CLOUDY    17   8  67 S9        30.04R WCI   6
LEXINGTON      CLOUDY    25  16  67 S14       29.99F WCI  14
HOLDREGE       CLOUDY    19  12  74 SW3       30.02F
HEBRON         CLOUDY    21   8  57 SE14G20   30.05F WCI   8

...NEBRASKA PANHANDLE...

CITY           SKY/WX    TMP DP  RH WIND       PRES   REMARKS
CHADRON        CLEAR     34  29  82 W16       29.98R WCI  24
ALLIANCE       CLEAR     33  27  78 NW17      29.98R WCI  22
SCOTTSBLUFF    CLEAR     31  28  89 NW7       30.04R WCI  24
SIDNEY         CLEAR     33  27  78 W10       30.04R WCI  25

...WESTERN AND NORTH CENTRAL NEBRASKA...

CITY           SKY/WX    TMP DP  RH WIND       PRES   REMARKS
VALENTINE      CLOUDY    34  32  92 W15       29.85R WCI  24
AINSWORTH      LGT RAIN  35  33  91 W20G25    29.82R WCI  24
ONEILL         CLOUDY    20  10  66 S21G28    29.90F WCI   4
BROKEN BOW     CLOUDY    25  17  72 S13       29.92F WCI  14
IMPERIAL       PTCLDY    34  29  82 NW10G20   30.01R WCI  26
NORTH PLATTE   MOCLDY    29  26  89 W3        29.97S
MCCOOK         CLEAR     24  20  84 SW6       30.02F WCI  17

...EASTERN NEBRASKA...

CITY           SKY/WX    TMP DP  RH WIND       PRES   REMARKS
NORFOLK        CLOUDY    17   7  64 SE17      30.01F WCI   1
SO SIOUX CITY  CLOUDY    18   6  59 SE15      30.13S WCI   4
TEKAMAH        CLOUDY    18   6  59 SE17      30.15S WCI   3
COLUMBUS       CLOUDY    16   0  48 SE10      30.05F WCI   3
ALBION         CLOUDY    17   9  70 S14       30.01F WCI   3
OMAHA EPPLEY   CLOUDY    20   4  50 SE20      30.15F WCI   4
OFFUTT AFB     CLOUDY    20   3  48 SE17      30.14F WCI   5
MILLARD        CLOUDY    20   5  51 SE15      30.15F WCI   6
LINCOLN        CLOUDY    19   6  57 SE13      30.12F WCI   6
NEBRASKA CITY  CLOUDY    19   1  43 SE13      30.15F WCI   7
BEATRICE       CLOUDY    19   6  57 SE9       30.10F WCI   8
FALLS CITY     CLOUDY    20   3  48 SE9       30.17F WCI   9

...NORTHERN KANSAS...

CITY           SKY/WX    TMP DP  RH WIND       PRES   REMARKS
GOODLAND       CLEAR     27  25  92 NW8       30.05R WCI  19
HILL CITY      CLOUDY    28  20  71 NW12      30.07R WCI  18
NORTON         CLEAR     23  16  74 S6        30.03F WCI  16
PHILLIPSBURG   CLOUDY    25  16  68 CALM      30.08R
SMITH CENTER   CLEAR     19  12  73 CALM      30.09R
BELOIT         CLEAR     21   9  58 E7        30.06S WCI  13
HAYS           CLOUDY    28  12  50 N10       30.00R WCI  19
RUSSELL        PTCLDY    29  16  58 CALM      29.98S
CONCORDIA      PTCLDY    20   7  57 E8        30.06S WCI  10
SALINA         CLOUDY    26   9  48 E13       30.04S WCI  15
TOPEKA         CLOUDY    23   4  44 E10       30.15F WCI  12



USA.gov is the U.S. government's official web portal to all federal, state and local government web resources and services.